• In Österreich
  • Länderverzeichnis
  • Für 7 Tage
  • Wassertemperatur
  • Satellitenkarten
  • Wetterkarte
  • News
  • Widgets
  • user-avatar
    Anmelden

    Stündliche Wetter Stolun

    Heute, 23 April, Montag

    Zeit Temperatur Niederschläge Wind Luftdruck Luftfeuchtigkeit
    00:00 +13°C° 0 mm 3 m/S 754 mmHg 64%
    01:00 +13°C° 0 mm 3 m/S 754 mmHg 66%
    02:00 +12°C° 0,3 mm 3 m/S 753 mmHg 69%
    03:00 +12°C° 0,3 mm 3 m/S 753 mmHg 72%
    04:00 +12°C° 0,3 mm 3 m/S 753 mmHg 75%
    05:00 +13°C° 0,2 mm 3 m/S 752 mmHg 76%
    06:00 +14°C° 0,2 mm 3 m/S 752 mmHg 77%
    07:00 +16°C° 0,2 mm 3 m/S 752 mmHg 78%
    08:00 +18°C° 0,1 mm 4 m/S 752 mmHg 74%
    09:00 +20°C° 0,1 mm 4 m/S 752 mmHg 70%
    10:00 +22°C° 0,1 mm 4 m/S 752 mmHg 65%
    11:00 +22°C° 0,4 mm 5 m/S 752 mmHg 64%
    12:00 +22°C° 0,4 mm 5 m/S 752 mmHg 63%
    13:00 +22°C° 0,4 mm 5 m/S 752 mmHg 62%
    14:00 +22°C° 0,7 mm 5 m/S 752 mmHg 64%
    15:00 +21°C° 0,7 mm 5 m/S 752 mmHg 66%
    16:00 +20°C° 0,7 mm 5 m/S 752 mmHg 68%
    17:00 +19°C° 0,2 mm 5 m/S 753 mmHg 73%
    18:00 +17°C° 0,2 mm 4 m/S 753 mmHg 77%
    19:00 +16°C° 0,2 mm 3 m/S 753 mmHg 81%
    20:00 +14°C° 0 mm 3 m/S 754 mmHg 84%
    21:00 +14°C° 0 mm 2 m/S 754 mmHg 87%
    22:00 +12°C° 0 mm 1 m/S 755 mmHg 89%
    23:00 +12°C° 0 mm 2 m/S 755 mmHg 90%

    Morgen, 24 April, Dienstag

    Zeit Temperatur Niederschläge Wind Luftdruck Luftfeuchtigkeit
    00:00 +12°C° 0 mm 2 m/S 755 mmHg 91%
    01:00 +10°C° 0 mm 2 m/S 755 mmHg 92%
    02:00 +10°C° 0 mm 2 m/S 755 mmHg 92%
    03:00 +9°C° 0 mm 2 m/S 756 mmHg 92%
    04:00 +9°C° 0 mm 2 m/S 756 mmHg 91%
    05:00 +9°C° 0 mm 3 m/S 756 mmHg 87%
    06:00 +10°C° 0 mm 3 m/S 756 mmHg 83%
    07:00 +11°C° 0 mm 4 m/S 756 mmHg 79%
    08:00 +12°C° 0 mm 4 m/S 756 mmHg 71%
    09:00 +14°C° 0 mm 4 m/S 756 mmHg 63%
    10:00 +15°C° 0 mm 5 m/S 756 mmHg 56%
    11:00 +16°C° 0 mm 5 m/S 756 mmHg 52%
    12:00 +19°C° 0 mm 5 m/S 755 mmHg 49%
    13:00 +20°C° 0 mm 6 m/S 755 mmHg 46%
    14:00 +20°C° 0 mm 6 m/S 754 mmHg 48%
    15:00 +20°C° 0 mm 5 m/S 754 mmHg 50%
    16:00 +20°C° 0 mm 5 m/S 754 mmHg 52%
    17:00 +17°C° 0,1 mm 5 m/S 754 mmHg 59%
    18:00 +17°C° 0,1 mm 4 m/S 754 mmHg 67%
    19:00 +14°C° 0,1 mm 4 m/S 754 mmHg 74%
    20:00 +14°C° 0,1 mm 4 m/S 754 mmHg 78%
    21:00 +13°C° 0,1 mm 3 m/S 754 mmHg 81%
    22:00 +12°C° 0,1 mm 3 m/S 754 mmHg 85%
    23:00 +12°C° 0,1 mm 3 m/S 754 mmHg 86%

    übermorgen, 25 April, Mittwoch

    Zeit Temperatur Niederschläge Wind Luftdruck Luftfeuchtigkeit
    00:00 +13°C° 0,1 mm 2 m/S 754 mmHg 88%
    01:00 +12°C° 0,1 mm 2 m/S 754 mmHg 90%
    02:00 +12°C° 0 mm 2 m/S 754 mmHg 91%
    03:00 +12°C° 0 mm 2 m/S 753 mmHg 92%
    04:00 +12°C° 0 mm 2 m/S 753 mmHg 93%
    05:00 +12°C° 0,4 mm 2 m/S 753 mmHg 91%
    06:00 +12°C° 0,4 mm 3 m/S 752 mmHg 90%
    07:00 +12°C° 0,4 mm 3 m/S 752 mmHg 89%
    08:00 +14°C° 0,2 mm 4 m/S 752 mmHg 84%
    09:00 +15°C° 0,2 mm 5 m/S 751 mmHg 79%
    10:00 +16°C° 0,2 mm 6 m/S 751 mmHg 73%
    11:00 +17°C° 0,5 mm 7 m/S 751 mmHg 73%
    12:00 +17°C° 0,5 mm 7 m/S 751 mmHg 72%
    13:00 +17°C° 0,5 mm 7 m/S 751 mmHg 71%
    14:00 +16°C° 0,4 mm 6 m/S 751 mmHg 73%
    15:00 +15°C° 0,4 mm 6 m/S 752 mmHg 76%
    16:00 +14°C° 0,4 mm 5 m/S 752 mmHg 78%
    17:00 +13°C° 0 mm 4 m/S 752 mmHg 80%
    18:00 +12°C° 0 mm 3 m/S 753 mmHg 81%
    19:00 +12°C° 0 mm 2 m/S 753 mmHg 82%
    20:00 +10°C° 0 mm 2 m/S 753 mmHg 85%
    21:00 +9°C° 0 mm 2 m/S 754 mmHg 88%
    22:00 +9°C° 0 mm 2 m/S 754 mmHg 91%
    23:00 +9°C° 0,1 mm 2 m/S 754 mmHg 91%

    26 April, Donnerstag

    Zeit Temperatur Niederschläge Wind Luftdruck Luftfeuchtigkeit
    00:00 +9°C° 0,1 mm 3 m/S 755 mmHg 91%
    01:00 +9°C° 0,1 mm 3 m/S 755 mmHg 91%
    02:00 +8°C° 0 mm 3 m/S 755 mmHg 92%
    03:00 +7°C° 0 mm 4 m/S 755 mmHg 93%
    04:00 +6°C° 0 mm 4 m/S 755 mmHg 94%
    05:00 +7°C° 0 mm 4 m/S 755 mmHg 89%
    06:00 +7°C° 0 mm 4 m/S 756 mmHg 85%
    07:00 +8°C° 0 mm 4 m/S 756 mmHg 81%
    08:00 +10°C° 0 mm 4 m/S 756 mmHg 71%
    09:00 +12°C° 0 mm 4 m/S 756 mmHg 62%
    10:00 +13°C° 0 mm 4 m/S 756 mmHg 52%
    11:00 +14°C° 0 mm 4 m/S 755 mmHg 49%
    12:00 +15°C° 0 mm 4 m/S 755 mmHg 47%
    13:00 +17°C° 0 mm 4 m/S 754 mmHg 44%
    14:00 +15°C° 0,2 mm 4 m/S 754 mmHg 49%
    15:00 +15°C° 0,2 mm 4 m/S 753 mmHg 54%
    16:00 +14°C° 0,2 mm 3 m/S 753 mmHg 59%
    17:00 +13°C° 0,2 mm 3 m/S 753 mmHg 64%
    18:00 +12°C° 0,2 mm 3 m/S 753 mmHg 70%
    19:00 +12°C° 0,2 mm 2 m/S 753 mmHg 75%
    20:00 +10°C° 0 mm 3 m/S 753 mmHg 78%
    21:00 +9°C° 0 mm 3 m/S 753 mmHg 81%
    22:00 +9°C° 0 mm 3 m/S 754 mmHg 84%
    23:00 +8°C° 0 mm 3 m/S 754 mmHg 86%

    27 April, Freitag

    Zeit Temperatur Niederschläge Wind Luftdruck Luftfeuchtigkeit
    00:00 +7°C° 0 mm 3 m/S 754 mmHg 89%
    01:00 +7°C° 0 mm 3 m/S 755 mmHg 92%
    02:00 +5°C° 0 mm 3 m/S 755 mmHg 93%
    03:00 +5°C° 0 mm 3 m/S 755 mmHg 94%
    04:00 +4°C° 0 mm 3 m/S 756 mmHg 95%
    05:00 +5°C° 0 mm 3 m/S 756 mmHg 89%
    06:00 +6°C° 0 mm 4 m/S 756 mmHg 83%
    07:00 +7°C° 0 mm 4 m/S 757 mmHg 77%
    08:00 +8°C° 0 mm 4 m/S 757 mmHg 69%
    09:00 +10°C° 0 mm 5 m/S 757 mmHg 61%
    10:00 +12°C° 0 mm 5 m/S 757 mmHg 53%
    11:00 +13°C° 0,1 mm 5 m/S 757 mmHg 49%
    12:00 +14°C° 0,1 mm 5 m/S 756 mmHg 46%
    13:00 +15°C° 0,1 mm 5 m/S 756 mmHg 42%
    14:00 +15°C° 0 mm 4 m/S 756 mmHg 44%
    15:00 +14°C° 0 mm 4 m/S 756 mmHg 45%
    16:00 +14°C° 0 mm 4 m/S 756 mmHg 46%
    17:00 +13°C° 0 mm 3 m/S 756 mmHg 51%
    18:00 +13°C° 0 mm 2 m/S 756 mmHg 55%
    19:00 +12°C° 0 mm 2 m/S 756 mmHg 60%
    20:00 +11°C° 0 mm 1 m/S 757 mmHg 62%
    21:00 +10°C° 0 mm 1 m/S 757 mmHg 65%
    22:00 +9°C° 0 mm 1 m/S 757 mmHg 67%
    23:00 +9°C° 0 mm 1 m/S 757 mmHg 69%

    28 April, Samstag

    Zeit Temperatur Niederschläge Wind Luftdruck Luftfeuchtigkeit
    00:00 +8°C° 0 mm 1 m/S 757 mmHg 70%
    01:00 +8°C° 0 mm 1 m/S 757 mmHg 72%
    02:00 +7°C° 0 mm 1 m/S 757 mmHg 73%
    03:00 +7°C° 0 mm 1 m/S 757 mmHg 75%
    04:00 +7°C° 0 mm 1 m/S 757 mmHg 76%
    05:00 +8°C° 0 mm 1 m/S 758 mmHg 73%
    06:00 +9°C° 0 mm 1 m/S 758 mmHg 70%
    07:00 +9°C° 0 mm 2 m/S 758 mmHg 66%
    08:00 +12°C° 0 mm 2 m/S 758 mmHg 60%
    09:00 +14°C° 0 mm 2 m/S 758 mmHg 54%
    10:00 +16°C° 0 mm 3 m/S 758 mmHg 48%
    11:00 +17°C° 0 mm 3 m/S 757 mmHg 46%
    12:00 +18°C° 0 mm 3 m/S 757 mmHg 45%
    13:00 +19°C° 0 mm 3 m/S 757 mmHg 43%
    14:00 +19°C° 0 mm 4 m/S 756 mmHg 45%
    15:00 +19°C° 0 mm 4 m/S 756 mmHg 46%
    16:00 +19°C° 0 mm 4 m/S 756 mmHg 48%
    17:00 +18°C° 0 mm 4 m/S 755 mmHg 52%
    18:00 +17°C° 0 mm 4 m/S 755 mmHg 57%
    19:00 +15°C° 0 mm 4 m/S 755 mmHg 62%
    20:00 +14°C° 0 mm 4 m/S 755 mmHg 60%
    21:00 +14°C° 0 mm 5 m/S 755 mmHg 58%
    22:00 +14°C° 0 mm 6 m/S 755 mmHg 56%
    23:00 +14°C° 0 mm 6 m/S 754 mmHg 57%
    Mehr zeigen